map of MSQ home
Great Circle Mapper logo
MSQ - Airport
Location
City:  Minsk, Belarus
Name:Minsk-2
ICAO / IATA:UMMS / MSQ

Details
Type:Airport (Aerodrome, Airfield)
Use:Public/Civil, International (customs port of entry)
Latitude:5352'57"N (53.882469)
Longitude:2801'51"E (28.030731)
Datum:WGS 1984
Elevation:670 ft (204 m)
Variation:7.6E (WMM2015 magnetic declination)
Runways:1
Longest:11946 × 197 ft (3641 × 60 m), paved

Time
Time Zone:UTC+2 (DST+3)

Weather
METAR:UMMS 200600Z 26003MPS 210V300 9999 BKN022 04/02 Q1001 R31/290060 NOSIG
TAF:UMMS 200445Z 2006/2106 28007G12MPS 6000 BKN012 BKN015CB
TEMPO 2006/2009 27009G14MPS 3000 -SHRASN SCT004
TEMPO 2009/2020 25012G17MPS 1200 SHSNRA SCT003 PROB40
TEMPO 2011/2017 TS
TEMPO 2020/2106 2000 SNRA BR SCT004

Related Locations
Nearby:
Farthest:CHT: 11130 mi / 17912 km
Waitangi [Tuuta], Chatham Islands, NZ

Find:

   beyond  
but within

Other Information
Maps:
NOTAMs:
Links:
Sources:

  
flag of Belarus   

Sectional Chart

Flight Planning
at skyvector.com

Satellite Image

Google Maps Satellite View

 

Copyright © 2004-2014 Karl L. Swartz. All rights reserved.
The Great Circle Mapper name and logo are trademarks of the Great Circle Mapper.
All other trademarks mentioned herein belong to their respective owners.
Please see credits for attibutions and further copyright information.

  Follow gcmap on Facebook Follow gcmap on Twitter

hCard Microformat

Geo Microformat